[[{"header":{"parameterUnit":"m.s-1","parameterCategory":1,"la1":30.2991,"la2":30.254,"lo1":-89.0895,"lo2":-89.0444,"dy":0.0017,"dx":0.0017,"nx":28,"ny":28,"refTime":"2025-09-07T21:00:00:Z","depth":0,"parameterNumber":2,"parameterNumberName":"U-component_of_WINDS"},"data":[0,0,0,0,0,0,0,0,0,0,0,0,0,0,0,0,0,0,0,0,0,0,0,0,0,0,0,0,0,0,0,0,0,0,0,0,0,0,0,0,0,0,0,0,0,0,0,0,0,0,0,0,0,0,0,0,0,0,-5.2147,-5.2148,0,-5.2231,-5.2232,-5.2233,-5.207,-5.2065,-5.2059,-5.2054,-5.2144,-5.2151,-5.2158,0,0,0,0,0,0,0,0,0,0,0,0,0,-5.1846,-5.1852,-5.2147,-5.2148,-5.2149,-5.2231,-5.2232,-5.2234,-5.2071,-5.2064,-5.2058,-5.2052,-5.2141,-5.215,-5.2159,0,0,0,0,0,0,0,0,0,0,0,0,0,-5.1958,-5.1854,-5.2147,-5.2078,-5.2072,-5.2231,-5.2232,-5.2234,-5.2072,-5.2064,-5.2056,-5.2049,-5.2138,-5.2149,-5.216,-5.2391,0,0,-5.2194,-5.2199,0,0,0,0,0,0,0,0,-5.1952,-5.1969,-5.2087,-5.2083,-5.2077,-5.2132,-5.2159,-5.2287,-5.2074,-5.2073,-5.2054,-5.2045,-5.2147,-5.2157,-5.219,-5.2395,-5.2399,-5.2195,-5.2202,-5.2207,-5.221,0,0,0,0,0,0,0,-5.1944,-5.1965,-5.218,-5.2089,-5.2083,-5.2043,-5.205,-5.2182,-5.2154,-5.2072,-5.206,-5.2072,-5.2142,-5.218,-5.2191,-5.24,-5.2195,-5.2205,-5.2212,-5.2216,-5.2797,-5.2805,0,0,0,0,0,0,-5.1945,-5.1959,-5.2178,-5.2183,-5.1993,-5.2055,-5.2063,-5.2123,-5.2152,-5.2149,-5.2079,-5.2064,-5.2165,-5.2178,-5.2194,-5.2465,-5.2207,-5.2217,-5.2223,-5.2788,-5.2799,-5.2808,0,0,0,0,0,0,-5.1939,-5.1966,-5.2174,-5.2068,-5.2091,-5.2069,-5.2137,-5.2128,-5.2166,-5.2157,-5.2152,-5.2123,-5.2159,-5.2178,-5.2342,-5.2466,-5.2222,-5.2232,-5.2778,-5.2791,-5.2803,-5.301,0,0,0,0,0,0,-5.1931,-5.1965,-5.2053,-5.2071,-5.2098,-5.2322,-5.2145,-5.2136,-5.2185,-5.2167,-5.2197,-5.2194,-5.2154,-5.2327,-5.2354,-5.2476,-5.2241,-5.2767,-5.2784,-5.2799,-5.2992,-5.3028,-5.3059,0,0,0,0,0,-5.1921,-5.2108,-5.2058,-5.2085,-5.2207,-5.233,-5.2345,-5.2294,-5.2196,-5.2283,-5.2277,-5.2193,-5.2448,-5.2345,-5.2374,-5.2502,-5.2759,-5.2779,-5.2798,-5.2977,-5.3021,-5.3059,0,0,0,0,0,0,-5.2106,-5.211,-5.2054,-5.2252,-5.2292,-5.2302,-5.2411,-5.2343,-5.2412,-5.2392,-5.2327,-5.2335,-5.2512,-5.2523,-5.2409,-5.2726,-5.2586,-5.2613,-5.2713,-5.2755,-5.2788,-5.2782,-5.225,0,0,0,0,0,-5.217,-5.2269,-5.2267,-5.2442,-5.2465,-5.2435,-5.2487,-5.2444,-5.2482,-5.2499,-5.2505,-5.2546,-5.2635,-5.2695,-5.2777,-5.2992,-5.2996,-5.3094,-5.3128,-5.3156,-5.318,-5.3293,-5.3337,-5.2873,-5.2873,-5.2872,0,0,-5.2303,-5.2317,-5.2384,-5.248,-5.2505,-5.2609,-5.245,-5.2568,-5.2644,-5.2517,-5.2672,-5.2678,-5.272,-5.291,-5.2995,-5.2925,-5.3308,-5.3181,-5.3203,-5.3212,-5.3318,-5.3362,-5.3401,-5.2886,-5.2884,-5.2882,0,0,-5.2599,-5.262,-5.2768,-5.2796,-5.2836,-5.2814,-5.285,-5.287,-5.2868,-5.3023,-5.2929,-5.3019,-5.3174,-5.3207,-5.3244,-5.355,-5.3475,-5.3578,-5.3756,-5.3867,-5.3904,-5.3936,-5.4045,-5.4085,-5.3602,-5.3603,-5.3603,0,-5.276,-5.2913,-5.2853,-5.2976,-5.3021,-5.2908,-5.3057,-5.3087,-5.3153,-5.3186,-5.3106,-5.3297,-5.3317,-5.3513,-5.3588,-5.3622,-5.366,-5.3575,-5.3903,-5.3935,-5.3964,-5.4067,-5.4108,-5.3615,-5.3613,-5.3612,-5.3611,0,-5.3108,-5.3216,-5.333,-5.3394,-5.3451,-5.3588,-5.3548,-5.3613,-5.3565,-5.3552,-5.371,-5.3729,-5.3812,-5.3855,-5.381,-5.4045,-5.4001,-5.3914,-5.3772,-5.4021,-5.4117,-5.4156,-5.3633,-5.3628,-5.3624,-5.3621,0,0,-5.3526,-5.3552,-5.3596,-5.3622,-5.3657,-5.3739,-5.3869,-5.3949,-5.4006,-5.4054,-5.4161,-5.4294,-5.4212,-5.4255,-5.4212,-5.431,-5.455,-5.421,-5.421,-5.4273,-5.481,-5.4876,-5.4923,-5.45,-5.4507,-5.4513,-5.4806,0,-5.3818,-5.4042,-5.399,-5.4211,-5.4309,-5.4202,-5.4315,-5.4349,-5.434,-5.4421,-5.4411,-5.4506,-5.4391,-5.4416,-5.4508,-5.4502,-5.4657,-5.448,-5.46,-5.4605,-5.4594,-5.4973,-5.5043,-5.5319,-5.4843,-5.485,-5.4854,0,-5.4191,-5.4251,-5.4482,-5.4498,-5.4537,-5.464,-5.4708,-5.4787,-5.4823,-5.4809,-5.4856,-5.4793,-5.4922,-5.4778,-5.4955,-5.4835,-5.4881,-5.4885,-5.4895,-5.4905,-5.4746,-5.4993,-5.5406,-5.5448,-5.4913,-5.4908,-5.4904,0,-5.4472,-5.4611,-5.4766,-5.4792,-5.4816,-5.4891,-5.4904,-5.4931,-5.4982,-5.5041,-5.5073,-5.5148,-5.5189,-5.5248,-5.5207,-5.5106,-5.539,-5.5244,-5.5383,-5.5384,-5.5448,-5.5445,-5.5875,-5.5478,-5.5477,-5.5476,-5.5475,0,-5.4805,-5.495,-5.4892,-5.4988,-5.5147,-5.5086,-5.5245,-5.5246,-5.5271,-5.5364,-5.5277,-5.5367,-5.5307,-5.5392,-5.5361,-5.5512,-5.5531,-5.5524,-5.5514,-5.5532,-5.5533,-5.5562,-5.5542,-5.5487,-5.5485,-5.5483,-5.5481,0,-5.5146,-5.5113,-5.5275,-5.5283,-5.5289,-5.5406,-5.5413,-5.5501,-5.5484,-5.5604,-5.5629,-5.5604,-5.5699,-5.5664,-5.5766,-5.5745,-5.5937,-5.5902,-5.5925,-5.5917,-5.6058,-5.6045,-5.6522,-5.6581,-5.6146,-5.615,-5.6153,0,-5.5361,-5.5469,-5.5489,-5.5545,-5.5564,-5.5656,-5.5706,-5.565,-5.5706,-5.5753,-5.5837,-5.5924,-5.5991,-5.6149,-5.614,-5.6218,-5.6184,-5.6346,-5.6195,-5.621,-5.6187,-5.6181,-5.6191,-5.6376,-5.6381,-5.6385,-5.6389,0,-5.5746,-5.5723,-5.5799,-5.5869,-5.5932,-5.5984,-5.6029,-5.608,-5.6026,-5.6094,-5.619,-5.6242,-5.6345,-5.6433,-5.6502,-5.6516,-5.6445,-5.6436,-5.6472,-5.6492,-5.6501,-5.6498,-5.6008,-5.6425,-5.6422,-5.6419,-5.6417,-5.6416,-5.603,-5.6121,-5.6148,-5.6235,-5.6263,-5.6306,-5.639,-5.6382,-5.6461,-5.654,-5.6502,-5.6613,-5.6644,-5.6729,-5.6753,-5.6839,-5.6776,-5.6829,-5.6843,-5.6857,-5.6875,-5.6487,-5.6852,-5.6851,-5.6849,-5.6849,-5.6848,0,-5.641,-5.6422,-5.6502,-5.6567,-5.6635,-5.6559,-5.6605,-5.6667,-5.6766,-5.68,-5.6867,-5.6977,-5.7062,-5.7058,-5.7137,-5.7206,-5.7175,-5.7229,-5.7223,-5.7228,-5.6927,-5.6887,-5.7253,-5.7252,-5.7252,-5.7252,-5.7252,-5.7252,-5.6616,-5.6765,-5.6746,-5.6908,-5.6919,-5.7026,-5.7058,-5.7098,-5.7125,-5.7251,-5.732,-5.7317,-5.7336,-5.7415,-5.7489,-5.7486,-5.7519,-5.7585,-5.757,-5.7289,-5.7249,-5.7211,-5.7173,-5.7593,-5.7593,-5.7864,-5.7866,-5.7868]},{"header":{"parameterUnit":"m.s-1","parameterCategory":1,"la1":30.2991,"la2":30.254,"lo1":-89.0895,"lo2":-89.0444,"dy":0.0017,"dx":0.0017,"nx":28,"ny":28,"refTime":"2025-09-07T21:00:00:Z","depth":0,"parameterNumber":3,"parameterNumberName":"V-component_of_WINDS"},"data":[0,0,0,0,0,0,0,0,0,0,0,0,0,0,0,0,0,0,0,0,0,0,0,0,0,0,0,0,0,0,0,0,0,0,0,0,0,0,0,0,0,0,0,0,0,0,0,0,0,0,0,0,0,0,0,0,0,0,-1.6446,-1.6448,0,-1.6603,-1.6605,-1.6606,-1.6704,-1.6705,-1.6705,-1.6706,-1.6866,-1.687,-1.6874,0,0,0,0,0,0,0,0,0,0,0,0,0,-1.6232,-1.6236,-1.6446,-1.6448,-1.645,-1.6603,-1.6605,-1.6607,-1.6704,-1.6705,-1.6705,-1.6706,-1.6865,-1.687,-1.6874,0,0,0,0,0,0,0,0,0,0,0,0,0,-1.635,-1.6237,-1.6446,-1.6517,-1.6525,-1.6602,-1.6605,-1.6607,-1.6704,-1.6705,-1.6705,-1.6706,-1.6864,-1.6869,-1.6875,-1.6894,0,0,-1.6892,-1.6895,0,0,0,0,0,0,0,0,-1.6344,-1.6358,-1.6505,-1.6512,-1.6521,-1.6635,-1.6588,-1.6703,-1.6704,-1.6636,-1.6706,-1.6707,-1.6789,-1.6801,-1.6828,-1.6901,-1.6908,-1.6893,-1.6896,-1.6899,-1.69,0,0,0,0,0,0,0,-1.6335,-1.6352,-1.6508,-1.6507,-1.6517,-1.6541,-1.6559,-1.6611,-1.6706,-1.6642,-1.6649,-1.6667,-1.6793,-1.6822,-1.6833,-1.6911,-1.6892,-1.6898,-1.6901,-1.6903,-1.7007,-1.7006,0,0,0,0,0,0,-1.6316,-1.6345,-1.6503,-1.6513,-1.6433,-1.6544,-1.6564,-1.6598,-1.6706,-1.6723,-1.6666,-1.667,-1.6812,-1.6826,-1.6839,-1.6868,-1.6898,-1.6904,-1.6907,-1.7007,-1.7007,-1.7006,0,0,0,0,0,0,-1.6311,-1.6329,-1.6497,-1.6431,-1.6454,-1.6547,-1.6584,-1.66,-1.6629,-1.6724,-1.6741,-1.6678,-1.6814,-1.6831,-1.6879,-1.6874,-1.6906,-1.6912,-1.7008,-1.7007,-1.7006,-1.6925,0,0,0,0,0,0,-1.6304,-1.6327,-1.6335,-1.643,-1.6457,-1.6534,-1.6584,-1.6603,-1.6639,-1.6647,-1.674,-1.6756,-1.6816,-1.687,-1.6885,-1.6883,-1.6916,-1.7009,-1.7008,-1.7006,-1.6928,-1.6921,-1.6915,0,0,0,0,0,-1.6296,-1.6306,-1.6334,-1.6353,-1.6469,-1.6534,-1.6549,-1.6618,-1.6638,-1.6647,-1.6707,-1.6753,-1.6873,-1.6874,-1.6892,-1.6891,-1.701,-1.7008,-1.7007,-1.6931,-1.6923,-1.6915,0,0,0,0,0,0,-1.6207,-1.632,-1.6353,-1.6393,-1.6453,-1.655,-1.6563,-1.6606,-1.6662,-1.6667,-1.675,-1.677,-1.681,-1.6856,-1.6856,-1.6915,-1.6946,-1.6948,-1.6883,-1.6876,-1.6869,-1.6857,-1.6921,0,0,0,0,0,-1.6192,-1.6235,-1.6331,-1.6358,-1.6386,-1.6469,-1.65,-1.6548,-1.6613,-1.6639,-1.6703,-1.6765,-1.6817,-1.6849,-1.6902,-1.6936,-1.6957,-1.6944,-1.6938,-1.6932,-1.6932,-1.6953,-1.6948,-1.7001,-1.7001,-1.7001,0,0,-1.6162,-1.6229,-1.6251,-1.6342,-1.6394,-1.6436,-1.649,-1.6533,-1.6565,-1.6646,-1.6695,-1.6744,-1.6819,-1.686,-1.6881,-1.6899,-1.6922,-1.693,-1.6924,-1.6928,-1.6951,-1.6946,-1.6941,-1.7,-1.7,-1.7,0,0,-1.6128,-1.6183,-1.6211,-1.6262,-1.634,-1.6395,-1.6402,-1.6492,-1.6528,-1.6579,-1.664,-1.668,-1.6767,-1.6818,-1.6855,-1.684,-1.6884,-1.6855,-1.682,-1.6839,-1.6835,-1.6832,-1.6825,-1.6822,-1.6855,-1.6855,-1.6855,0,-1.6081,-1.6147,-1.622,-1.6259,-1.6297,-1.6372,-1.64,-1.6447,-1.6538,-1.6562,-1.6581,-1.6692,-1.6748,-1.6802,-1.6798,-1.6826,-1.6836,-1.6844,-1.683,-1.6827,-1.6825,-1.682,-1.6818,-1.6851,-1.6851,-1.6852,-1.6852,0,-1.6084,-1.6129,-1.6143,-1.6228,-1.6268,-1.6301,-1.638,-1.6411,-1.6455,-1.6508,-1.6559,-1.6628,-1.6696,-1.6713,-1.6757,-1.6773,-1.6781,-1.6814,-1.6847,-1.6815,-1.6811,-1.681,-1.6845,-1.6847,-1.6848,-1.6849,0,0,-1.5998,-1.6124,-1.6127,-1.6166,-1.6258,-1.6294,-1.6331,-1.6398,-1.6422,-1.6483,-1.6516,-1.6588,-1.6619,-1.6661,-1.6711,-1.6728,-1.6711,-1.6759,-1.6762,-1.6747,-1.6732,-1.6706,-1.6702,-1.6741,-1.6741,-1.6741,-1.6726,0,-1.5977,-1.6047,-1.6114,-1.6159,-1.6202,-1.6273,-1.6306,-1.6365,-1.6416,-1.6459,-1.6516,-1.6565,-1.6603,-1.6628,-1.6648,-1.6709,-1.6709,-1.6711,-1.6772,-1.6773,-1.675,-1.6701,-1.6674,-1.6656,-1.6725,-1.6725,-1.6725,0,-1.5962,-1.6018,-1.6068,-1.6154,-1.6175,-1.6202,-1.6268,-1.6309,-1.6378,-1.6414,-1.646,-1.6514,-1.6556,-1.6585,-1.6645,-1.6645,-1.6674,-1.6708,-1.6709,-1.6716,-1.6746,-1.6706,-1.6652,-1.6648,-1.6724,-1.6724,-1.6724,0,-1.5892,-1.5981,-1.6022,-1.6054,-1.6156,-1.6174,-1.6218,-1.6288,-1.6323,-1.6381,-1.6405,-1.6467,-1.65,-1.6547,-1.6616,-1.6631,-1.6668,-1.6703,-1.6699,-1.6697,-1.6702,-1.6701,-1.665,-1.6723,-1.6723,-1.6723,-1.6723,0,-1.5861,-1.5888,-1.5992,-1.6017,-1.605,-1.6126,-1.6157,-1.6207,-1.6269,-1.6305,-1.6371,-1.6404,-1.6493,-1.6536,-1.659,-1.6631,-1.6646,-1.6676,-1.669,-1.667,-1.6665,-1.6689,-1.6691,-1.6722,-1.6722,-1.6722,-1.6723,0,-1.5788,-1.5859,-1.5908,-1.6001,-1.6025,-1.6045,-1.6125,-1.6152,-1.6207,-1.6252,-1.6267,-1.6352,-1.6407,-1.648,-1.6558,-1.6594,-1.6628,-1.665,-1.6604,-1.6612,-1.6603,-1.6602,-1.6565,-1.6564,-1.6637,-1.6636,-1.6635,0,-1.5763,-1.5785,-1.588,-1.5909,-1.595,-1.5996,-1.6032,-1.6109,-1.6144,-1.6224,-1.6242,-1.6301,-1.6353,-1.6436,-1.6506,-1.6566,-1.6589,-1.6572,-1.6599,-1.6577,-1.6588,-1.6585,-1.6587,-1.6565,-1.6564,-1.6563,-1.6562,0,-1.571,-1.5743,-1.5793,-1.5854,-1.5895,-1.5947,-1.6003,-1.6023,-1.6111,-1.6147,-1.6204,-1.6243,-1.6322,-1.638,-1.6449,-1.6495,-1.6543,-1.6553,-1.6555,-1.6534,-1.6505,-1.652,-1.6585,-1.6554,-1.6554,-1.6555,-1.6555,-1.6556,-1.5659,-1.5682,-1.5752,-1.5805,-1.5855,-1.5905,-1.5934,-1.5993,-1.6041,-1.611,-1.6153,-1.6207,-1.6277,-1.6374,-1.6417,-1.6461,-1.648,-1.6483,-1.6484,-1.6483,-1.6475,-1.6499,-1.6474,-1.6475,-1.6475,-1.6475,-1.6475,0,-1.5608,-1.5657,-1.5705,-1.578,-1.5821,-1.5863,-1.5926,-1.5958,-1.6004,-1.6065,-1.6114,-1.6178,-1.6235,-1.6309,-1.6371,-1.6392,-1.6415,-1.6405,-1.6404,-1.6413,-1.6456,-1.6447,-1.6385,-1.6385,-1.6385,-1.6385,-1.6385,-1.6385,-1.5587,-1.5627,-1.5669,-1.5735,-1.5785,-1.5837,-1.587,-1.5916,-1.5965,-1.6033,-1.608,-1.6128,-1.6194,-1.6262,-1.6316,-1.6336,-1.6355,-1.6338,-1.6365,-1.6403,-1.6411,-1.6418,-1.6411,-1.6342,-1.6342,-1.632,-1.6319,-1.6319]}]]